Time,TemperatureF,DewpointF,PressureIn,WindDirection,WindDirectionDegrees,WindSpeedMPH,WindSpeedGustMPH,Humidity,HourlyPrecipIn,Conditions,Clouds,dailyrainin,SoftwareType,DateUTC
2013-07-02 00:02:00,61.7,45.9,29.59,North,354,2.6,3.8,56,-99.99,,,-99.99,WSDL version 423,2013-07-02 04:02:00,
2013-07-02 00:07:00,61.8,45.9,29.59,North,350,2.9,3.8,56,-99.99,,,-99.99,WSDL version 423,2013-07-02 04:07:00,
2013-07-02 00:12:00,61.7,46.3,29.59,North,352,3.2,4.9,57,-99.99,,,-99.99,WSDL version 423,2013-07-02 04:12:00,
2013-07-02 00:17:00,61.7,45.6,29.59,North,353,3.4,5.4,55,-99.99,,,-99.99,WSDL version 423,2013-07-02 04:17:00,
2013-07-02 00:22:00,61.9,44.5,29.59,North,5,3.4,5.4,51,-99.99,,,-99.99,WSDL version 423,2013-07-02 04:22:00,
2013-07-02 00:27:00,62.1,43.8,29.59,North,360,2.9,4.9,50,-99.99,,,-99.99,WSDL version 423,2013-07-02 04:27:00,
2013-07-02 00:32:00,62.3,43.3,29.59,North,3,2.3,4.5,50,-99.99,,,-99.99,WSDL version 423,2013-07-02 04:32:00,
2013-07-02 00:37:00,62.5,42.3,29.59,North,6,3.1,5.6,48,-99.99,,,-99.99,WSDL version 423,2013-07-02 04:37:00,
2013-07-02 00:42:00,62.6,42.7,29.59,North,3,2.1,5.6,48,-99.99,,,-99.99,WSDL version 423,2013-07-02 04:42:00,
2013-07-02 00:47:00,62.6,42.7,29.59,North,8,1.7,3.4,48,-99.99,,,-99.99,WSDL version 423,2013-07-02 04:47:00,
2013-07-02 00:52:00,62.6,42.5,29.59,North,358,2.7,3.8,47,-99.99,,,-99.99,WSDL version 423,2013-07-02 04:52:00,
2013-07-02 00:57:00,62.6,42.1,29.59,NNW,348,2.9,4.3,47,-99.99,,,-99.99,WSDL version 423,2013-07-02 04:57:00,
2013-07-02 01:02:00,62.6,42.4,29.59,NNW,348,2.2,4.3,47,-99.99,,,-99.99,WSDL version 423,2013-07-02 05:02:00,
2013-07-02 01:07:00,62.6,42.1,29.59,North,11,2.6,3.6,47,-99.99,,,-99.99,WSDL version 423,2013-07-02 05:07:00,
2013-07-02 01:12:00,62.6,42.1,29.59,North,360,2.9,4.0,47,-99.99,,,-99.99,WSDL version 423,2013-07-02 05:12:00,
2013-07-02 01:17:00,62.6,42.3,29.59,NNW,338,2.4,4.0,48,-99.99,,,-99.99,WSDL version 423,2013-07-02 05:17:00,
2013-07-02 01:22:00,62.4,42.5,29.59,North,354,2.2,3.8,48,-99.99,,,-99.99,WSDL version 423,2013-07-02 05:22:00,
2013-07-02 01:27:00,62.4,42.5,29.56,NNE,23,1.3,3.8,48,-99.99,,,-99.99,WSDL version 423,2013-07-02 05:27:00,
2013-07-02 01:32:00,62.2,42.3,29.56,NNW,340,1.0,2.7,48,-99.99,,,-99.99,WSDL version 423,2013-07-02 05:32:00,
2013-07-02 01:37:00,62.2,42.3,29.56,NNE,13,0.6,2.0,48,-99.99,,,-99.99,WSDL version 423,2013-07-02 05:37:00,
2013-07-02 01:42:00,62.1,42.2,29.59,NNW,347,0.3,2.2,48,-99.99,,,-99.99,WSDL version 423,2013-07-02 05:42:00,
2013-07-02 01:47:00,62.0,42.1,29.59,North,352,1.3,2.2,48,-99.99,,,-99.99,WSDL version 423,2013-07-02 05:47:00,
2013-07-02 01:52:00,61.9,42.2,29.59,North,5,1.8,2.9,49,-99.99,,,-99.99,WSDL version 423,2013-07-02 05:52:00,
2013-07-02 01:57:00,61.7,42.1,29.59,North,3,1.8,3.1,48,-99.99,,,-99.99,WSDL version 423,2013-07-02 05:57:00,
2013-07-02 02:02:00,61.7,41.9,29.59,NNW,340,2.5,3.4,48,-99.99,,,-99.99,WSDL version 423,2013-07-02 06:02:00,
2013-07-02 02:07:00,61.7,41.8,29.59,North,8,2.5,4.0,48,-99.99,,,-99.99,WSDL version 423,2013-07-02 06:07:00,
2013-07-02 02:12:00,61.6,41.7,29.59,North,358,2.1,4.0,48,-99.99,,,-99.99,WSDL version 423,2013-07-02 06:12:00,
2013-07-02 02:17:00,61.5,41.5,29.59,NNE,23,2.2,3.4,47,-99.99,,,-99.99,WSDL version 423,2013-07-02 06:17:00,
2013-07-02 02:22:00,61.4,41.4,29.59,North,10,1.5,3.4,48,-99.99,,,-99.99,WSDL version 423,2013-07-02 06:22:00,
2013-07-02 02:27:00,61.3,41.2,29.56,NNE,20,2.3,3.8,47,-99.99,,,-99.99,WSDL version 423,2013-07-02 06:27:00,
2013-07-02 02:32:00,61.3,41.0,29.56,NNE,31,1.1,3.8,47,-99.99,,,-99.99,WSDL version 423,2013-07-02 06:32:00,
2013-07-02 02:37:00,61.3,40.5,29.56,North,352,2.7,3.6,46,-99.99,,,-99.99,WSDL version 423,2013-07-02 06:37:00,
2013-07-02 02:42:00,61.2,40.6,29.59,NNW,335,3.0,4.3,46,-99.99,,,-99.99,WSDL version 423,2013-07-02 06:42:00,
2013-07-02 02:47:00,61.0,40.1,29.59,NNW,330,2.7,4.3,46,-99.99,,,-99.99,WSDL version 423,2013-07-02 06:47:00,
2013-07-02 02:52:00,60.9,40.4,29.59,NNW,346,2.2,3.6,47,-99.99,,,-99.99,WSDL version 423,2013-07-02 06:52:00,
2013-07-02 02:57:00,60.7,40.7,29.56,North,3,1.7,3.4,48,-99.99,,,-99.99,WSDL version 423,2013-07-02 06:57:00,
2013-07-02 03:02:00,60.6,40.8,29.56,NNE,25,2.3,3.1,48,-99.99,,,-99.99,WSDL version 423,2013-07-02 07:02:00,
2013-07-02 03:07:00,60.6,40.3,29.56,ENE,61,1.4,3.1,47,-99.99,,,-99.99,WSDL version 423,2013-07-02 07:07:00,
2013-07-02 03:12:00,60.6,40.5,29.56,NNE,23,1.4,3.1,48,-99.99,,,-99.99,WSDL version 423,2013-07-02 07:12:00,
2013-07-02 03:17:00,60.6,40.4,29.56,NNW,346,2.6,3.4,47,-99.99,,,-99.99,WSDL version 423,2013-07-02 07:17:00,
2013-07-02 03:22:00,60.6,40.3,29.56,North,354,2.2,3.4,47,-99.99,,,-99.99,WSDL version 423,2013-07-02 07:22:00,
2013-07-02 03:27:00,60.5,39.9,29.56,NNE,13,2.7,4.3,46,-99.99,,,-99.99,WSDL version 423,2013-07-02 07:27:00,
2013-07-02 03:32:00,60.6,40.0,29.56,NNW,343,0.0,4.3,47,-99.99,,,-99.99,WSDL version 423,2013-07-02 07:32:00,
2013-07-02 03:37:00,60.6,40.3,29.56,NNE,17,0.0,1.3,47,-99.99,,,-99.99,WSDL version 423,2013-07-02 07:37:00,
2013-07-02 03:42:00,60.6,39.9,29.56,North,357,2.0,3.6,46,-99.99,,,-99.99,WSDL version 423,2013-07-02 07:42:00,
2013-07-02 03:47:00,60.6,40.3,29.56,WNW,300,0.8,3.6,47,-99.99,,,-99.99,WSDL version 423,2013-07-02 07:47:00,
2013-07-02 03:52:00,60.6,40.1,29.56,NNW,338,1.5,2.5,46,-99.99,,,-99.99,WSDL version 423,2013-07-02 07:52:00,
2013-07-02 03:57:00,60.7,40.3,29.59,North,352,1.2,2.9,47,-99.99,,,-99.99,WSDL version 423,2013-07-02 07:57:00,
2013-07-02 04:02:00,60.7,39.9,29.59,NNW,340,1.9,3.4,46,-99.99,,,-99.99,WSDL version 423,2013-07-02 08:02:00,
2013-07-02 04:07:00,60.8,39.9,29.59,North,6,1.0,4.0,46,-99.99,,,-99.99,WSDL version 423,2013-07-02 08:07:00,
2013-07-02 04:12:00,60.7,40.2,29.59,NNE,33,1.5,4.0,47,-99.99,,,-99.99,WSDL version 423,2013-07-02 08:12:00,
2013-07-02 04:17:00,60.6,40.3,29.59,North,350,1.4,2.7,47,-99.99,,,-99.99,WSDL version 423,2013-07-02 08:17:00,
2013-07-02 04:22:00,60.5,40.2,29.59,North,352,2.2,3.4,47,-99.99,,,-99.99,WSDL version 423,2013-07-02 08:22:00,
2013-07-02 04:27:00,60.5,40.2,29.56,NNW,348,2.2,3.6,47,-99.99,,,-99.99,WSDL version 423,2013-07-02 08:27:00,
2013-07-02 04:32:00,60.5,40.2,29.56,NNW,338,1.9,3.6,47,-99.99,,,-99.99,WSDL version 423,2013-07-02 08:32:00,
2013-07-02 04:37:00,60.4,40.1,29.56,North,11,1.8,3.4,47,-99.99,,,-99.99,WSDL version 423,2013-07-02 08:37:00,
2013-07-02 04:42:00,60.6,40.3,29.56,NNW,346,1.7,2.7,47,-99.99,,,-99.99,WSDL version 423,2013-07-02 08:42:00,
2013-07-02 04:47:00,60.6,40.3,29.56,North,354,1.6,3.4,47,-99.99,,,-99.99,WSDL version 423,2013-07-02 08:47:00,
2013-07-02 04:52:00,60.6,40.3,29.56,NNW,343,2.4,3.4,47,-99.99,,,-99.99,WSDL version 423,2013-07-02 08:52:00,
2013-07-02 04:57:00,60.6,40.5,29.59,North,8,2.3,3.4,48,-99.99,,,-99.99,WSDL version 423,2013-07-02 08:57:00,
2013-07-02 05:02:00,60.6,40.8,29.59,NNW,340,2.3,3.4,48,-99.99,,,-99.99,WSDL version 423,2013-07-02 09:02:00,
2013-07-02 05:07:00,60.5,40.5,29.59,NNW,345,2.3,5.6,48,-99.99,,,-99.99,WSDL version 423,2013-07-02 09:07:00,
2013-07-02 05:12:00,60.5,40.7,29.59,NNW,338,2.3,5.6,48,-99.99,,,-99.99,WSDL version 423,2013-07-02 09:12:00,
2013-07-02 05:17:00,60.4,40.7,29.59,NNE,25,1.9,4.3,48,-99.99,,,-99.99,WSDL version 423,2013-07-02 09:17:00,
2013-07-02 05:27:00,60.4,40.9,29.56,North,354,2.4,4.0,48,-99.99,,,-99.99,WSDL version 423,2013-07-02 09:27:00,
2013-07-02 05:32:00,60.4,40.9,29.56,NNE,15,1.0,3.4,49,-99.99,,,-99.99,WSDL version 423,2013-07-02 09:32:00,
2013-07-02 05:37:00,60.4,41.2,29.56,North,350,0.6,3.4,49,-99.99,,,-99.99,WSDL version 423,2013-07-02 09:37:00,
2013-07-02 05:42:00,60.4,41.1,29.59,North,8,2.6,4.3,48,-99.99,,,-99.99,WSDL version 423,2013-07-02 09:42:00,
2013-07-02 05:47:00,60.6,41.3,29.59,North,360,1.8,4.3,49,-99.99,,,-99.99,WSDL version 423,2013-07-02 09:47:00,
2013-07-02 05:52:00,60.6,41.2,29.59,North,360,2.8,4.0,48,-99.99,,,-99.99,WSDL version 423,2013-07-02 09:52:00,
2013-07-02 05:57:00,60.7,41.1,29.56,NNW,329,1.3,4.0,48,-99.99,,,-99.99,WSDL version 423,2013-07-02 09:57:00,
2013-07-02 06:02:00,60.9,41.3,29.56,North,350,1.9,4.0,48,-99.99,,,-99.99,WSDL version 423,2013-07-02 10:02:00,
2013-07-02 06:07:00,61.0,41.2,29.56,North,355,1.1,4.0,48,-99.99,,,-99.99,WSDL version 423,2013-07-02 10:07:00,
2013-07-02 06:12:00,61.2,41.9,29.59,North,352,2.0,3.8,49,-99.99,,,-99.99,WSDL version 423,2013-07-02 10:12:00,
2013-07-02 06:17:00,61.2,41.9,29.59,North,6,2.3,3.8,49,-99.99,,,-99.99,WSDL version 423,2013-07-02 10:17:00,
2013-07-02 06:22:00,61.2,42.0,29.59,NNE,18,2.2,3.8,50,-99.99,,,-99.99,WSDL version 423,2013-07-02 10:22:00,
2013-07-02 06:27:00,61.3,42.6,29.59,North,349,1.0,2.9,50,-99.99,,,-99.99,WSDL version 423,2013-07-02 10:27:00,
2013-07-02 06:32:00,61.5,42.7,29.59,North,358,2.5,3.4,50,-99.99,,,-99.99,WSDL version 423,2013-07-02 10:32:00,
2013-07-02 06:37:00,61.6,42.6,29.59,North,6,1.8,3.4,50,-99.99,,,-99.99,WSDL version 423,2013-07-02 10:37:00,
2013-07-02 06:42:00,61.7,43.2,29.59,North,8,1.8,2.9,51,-99.99,,,-99.99,WSDL version 423,2013-07-02 10:42:00,
2013-07-02 06:47:00,61.7,43.3,29.59,North,360,2.5,4.3,50,-99.99,,,-99.99,WSDL version 423,2013-07-02 10:47:00,
2013-07-02 06:52:00,61.7,43.1,29.59,NNW,343,2.8,4.3,51,-99.99,,,-99.99,WSDL version 423,2013-07-02 10:52:00,
2013-07-02 06:57:00,61.9,43.5,29.59,North,353,2.7,4.0,51,-99.99,,,-99.99,WSDL version 423,2013-07-02 10:57:00,
2013-07-02 07:02:00,62.0,43.7,29.59,North,354,2.6,4.0,51,-99.99,,,-99.99,WSDL version 423,2013-07-02 11:02:00,
2013-07-02 07:07:00,62.2,43.7,29.59,WNW,288,1.0,4.0,52,-99.99,,,-99.99,WSDL version 423,2013-07-02 11:07:00,
2013-07-02 07:12:00,62.5,44.0,29.59,NNW,343,2.6,4.9,49,-99.99,,,-99.99,WSDL version 423,2013-07-02 11:12:00,
2013-07-02 07:17:00,62.6,43.6,29.59,North,8,2.7,4.9,50,-99.99,,,-99.99,WSDL version 423,2013-07-02 11:17:00,
2013-07-02 07:22:00,62.6,43.7,29.59,North,360,2.0,4.3,50,-99.99,,,-99.99,WSDL version 423,2013-07-02 11:22:00,
2013-07-02 07:27:00,62.6,44.0,29.62,North,3,2.4,4.0,51,-99.99,,,-99.99,WSDL version 423,2013-07-02 11:27:00,
2013-07-02 07:32:00,62.6,44.2,29.62,NNW,348,2.0,4.0,51,-99.99,,,-99.99,WSDL version 423,2013-07-02 11:32:00,
2013-07-02 07:37:00,62.5,44.3,29.62,NW,312,1.5,4.0,52,-99.99,,,-99.99,WSDL version 423,2013-07-02 11:37:00,
2013-07-02 07:42:00,62.6,44.7,29.59,NNW,330,0.9,3.6,52,-99.99,,,-99.99,WSDL version 423,2013-07-02 11:42:00,
2013-07-02 07:47:00,62.6,44.8,29.59,North,3,1.8,4.3,52,-99.99,,,-99.99,WSDL version 423,2013-07-02 11:47:00,
2013-07-02 07:52:00,62.8,45.0,29.59,NNW,343,2.2,5.4,52,-99.99,,,-99.99,WSDL version 423,2013-07-02 11:52:00,
2013-07-02 07:57:00,63.3,45.8,29.59,West,262,1.0,5.4,53,-99.99,,,-99.99,WSDL version 423,2013-07-02 11:57:00,
2013-07-02 08:02:00,63.8,46.1,29.59,NNW,329,0.6,3.4,52,-99.99,,,-99.99,WSDL version 423,2013-07-02 12:02:00,
2013-07-02 08:07:00,64.1,46.2,29.59,North,360,1.0,3.4,52,-99.99,,,-99.99,WSDL version 423,2013-07-02 12:07:00,
2013-07-02 08:12:00,64.2,45.4,29.59,North,349,2.4,5.4,50,-99.99,,,-99.99,WSDL version 423,2013-07-02 12:12:00,
2013-07-02 08:17:00,64.2,45.5,29.59,NNW,343,1.3,5.4,51,-99.99,,,-99.99,WSDL version 423,2013-07-02 12:17:00,
2013-07-02 08:22:00,64.3,45.9,29.59,NNE,17,1.9,3.8,51,-99.99,,,-99.99,WSDL version 423,2013-07-02 12:22:00,
2013-07-02 08:27:00,64.3,45.6,29.59,North,8,2.4,6.3,51,-99.99,,,-99.99,WSDL version 423,2013-07-02 12:27:00,
2013-07-02 08:32:00,64.4,46.3,29.59,NNE,17,2.2,6.3,52,-99.99,,,-99.99,WSDL version 423,2013-07-02 12:32:00,
2013-07-02 08:37:00,64.3,46.2,29.59,NNW,345,2.9,5.8,52,-99.99,,,-99.99,WSDL version 423,2013-07-02 12:37:00,
2013-07-02 08:42:00,64.2,46.2,29.59,North,353,2.8,4.9,52,-99.99,,,-99.99,WSDL version 423,2013-07-02 12:42:00,
2013-07-02 08:47:00,64.2,46.7,29.59,NNE,23,2.4,4.3,53,-99.99,,,-99.99,WSDL version 423,2013-07-02 12:47:00,
2013-07-02 08:52:00,64.2,46.8,29.59,NW,323,2.9,4.7,53,-99.99,,,-99.99,WSDL version 423,2013-07-02 12:52:00,
2013-07-02 08:57:00,64.1,46.6,29.59,North,357,1.8,6.0,53,-99.99,,,-99.99,WSDL version 423,2013-07-02 12:57:00,
2013-07-02 09:02:00,64.0,46.5,29.59,North,10,2.8,6.0,53,-99.99,,,-99.99,WSDL version 423,2013-07-02 13:02:00,
2013-07-02 09:07:00,64.0,46.9,29.59,NNW,343,2.2,5.8,54,-99.99,,,-99.99,WSDL version 423,2013-07-02 13:07:00,
2013-07-02 09:12:00,64.0,46.7,29.59,NNW,338,4.0,8.1,54,-99.99,,,-99.99,WSDL version 423,2013-07-02 13:12:00,
2013-07-02 09:17:00,64.1,47.1,29.59,NNW,343,2.5,8.1,54,-99.99,,,-99.99,WSDL version 423,2013-07-02 13:17:00,
2013-07-02 09:22:00,64.3,47.4,29.59,NNW,340,3.2,6.0,55,-99.99,,,-99.99,WSDL version 423,2013-07-02 13:22:00,
2013-07-02 09:27:00,64.2,47.3,29.59,NNW,343,4.5,8.1,54,-99.99,,,-99.99,WSDL version 423,2013-07-02 13:27:00,
2013-07-02 09:32:00,64.3,47.4,29.59,NW,315,5.3,8.1,54,-99.99,,,-99.99,WSDL version 423,2013-07-02 13:32:00,
2013-07-02 09:37:00,64.4,47.3,29.59,NW,323,3.2,7.8,54,-99.99,,,-99.99,WSDL version 423,2013-07-02 13:37:00,
2013-07-02 09:42:00,64.7,48.2,29.59,North,352,2.4,6.5,55,-99.99,,,-99.99,WSDL version 423,2013-07-02 13:42:00,
2013-07-02 09:47:00,64.5,47.7,29.59,NNW,338,4.2,7.4,54,-99.99,,,-99.99,WSDL version 423,2013-07-02 13:47:00,
2013-07-02 09:52:00,64.4,48.1,29.59,North,357,2.9,7.4,56,-99.99,,,-99.99,WSDL version 423,2013-07-02 13:52:00,
2013-07-02 09:57:00,64.2,48.8,29.59,NNW,346,3.2,5.6,57,-99.99,,,-99.99,WSDL version 423,2013-07-02 13:57:00,
2013-07-02 10:02:00,64.0,48.6,29.59,North,360,3.2,5.8,57,-99.99,,,-99.99,WSDL version 423,2013-07-02 14:02:00,
2013-07-02 10:07:00,63.9,48.8,29.59,North,349,3.1,5.8,58,-99.99,,,-99.99,WSDL version 423,2013-07-02 14:07:00,
2013-07-02 10:12:00,63.9,49.2,29.59,North,360,2.6,5.4,59,-99.99,,,-99.99,WSDL version 423,2013-07-02 14:12:00,
2013-07-02 10:17:00,63.9,49.2,29.59,North,360,3.2,5.6,59,-99.99,,,-99.99,WSDL version 423,2013-07-02 14:17:00,
2013-07-02 10:22:00,63.9,49.4,29.59,North,358,1.1,5.6,60,-99.99,,,-99.99,WSDL version 423,2013-07-02 14:22:00,
2013-07-02 10:27:00,63.9,49.7,29.59,NNW,346,3.3,4.7,60,-99.99,,,-99.99,WSDL version 423,2013-07-02 14:27:00,
2013-07-02 10:32:00,63.9,49.8,29.59,NNW,334,3.0,4.9,60,-99.99,,,-99.99,WSDL version 423,2013-07-02 14:32:00,
2013-07-02 10:37:00,64.0,49.9,29.59,NNE,15,3.3,5.6,60,-99.99,,,-99.99,WSDL version 423,2013-07-02 14:37:00,
2013-07-02 10:42:00,63.9,49.9,29.62,NNW,346,2.2,6.5,61,-99.99,,,-99.99,WSDL version 423,2013-07-02 14:42:00,
2013-07-02 10:47:00,64.2,50.2,29.62,NNE,13,2.2,6.5,60,-99.99,,,-99.99,WSDL version 423,2013-07-02 14:47:00,
2013-07-02 10:52:00,64.6,50.8,29.62,NNW,346,2.5,5.6,61,-99.99,,,-99.99,WSDL version 423,2013-07-02 14:52:00,
2013-07-02 10:57:00,64.8,50.9,29.59,North,358,5.0,8.7,60,-99.99,,,-99.99,WSDL version 423,2013-07-02 14:57:00,
2013-07-02 11:02:00,64.9,50.9,29.59,NNE,13,2.8,8.7,60,-99.99,,,-99.99,WSDL version 423,2013-07-02 15:02:00,
2013-07-02 11:07:00,64.9,51.0,29.59,NNW,341,4.7,6.3,61,-99.99,,,-99.99,WSDL version 423,2013-07-02 15:07:00,
2013-07-02 11:12:00,64.6,50.9,29.62,North,350,4.9,7.8,61,-99.99,,,-99.99,WSDL version 423,2013-07-02 15:12:00,
2013-07-02 11:17:00,64.4,51.0,29.62,North,3,1.5,7.8,62,-99.99,,,-99.99,WSDL version 423,2013-07-02 15:17:00,
2013-07-02 11:22:00,64.5,51.5,29.62,NW,312,0.4,4.3,63,-99.99,,,-99.99,WSDL version 423,2013-07-02 15:22:00,
2013-07-02 11:27:00,64.5,52.1,29.59,NNE,14,3.4,5.6,65,-99.99,,,-99.99,WSDL version 423,2013-07-02 15:27:00,
2013-07-02 11:32:00,64.4,52.8,29.59,North,5,3.6,8.1,66,-99.99,,,-99.99,WSDL version 423,2013-07-02 15:32:00,
2013-07-02 11:37:00,64.1,52.9,29.59,NNW,338,2.2,8.1,67,-99.99,,,-99.99,WSDL version 423,2013-07-02 15:37:00,
2013-07-02 11:42:00,64.1,53.1,29.59,North,357,1.2,4.0,68,-99.99,,,-99.99,WSDL version 423,2013-07-02 15:42:00,
2013-07-02 11:47:00,64.2,53.6,29.59,NNW,343,2.4,4.0,69,-99.99,,,-99.99,WSDL version 423,2013-07-02 15:47:00,
2013-07-02 11:52:00,64.4,53.9,29.59,NNW,343,3.0,4.0,69,-99.99,,,-99.99,WSDL version 423,2013-07-02 15:52:00,
2013-07-02 11:57:00,64.4,54.0,29.62,NNW,340,1.9,4.0,69,-99.99,,,-99.99,WSDL version 423,2013-07-02 15:57:00,
2013-07-02 12:02:00,64.7,54.3,29.62,North,360,2.2,4.0,69,-99.99,,,-99.99,WSDL version 423,2013-07-02 16:02:00,
2013-07-02 12:07:00,65.2,54.7,29.62,NNE,13,2.4,4.0,68,-99.99,,,-99.99,WSDL version 423,2013-07-02 16:07:00,
2013-07-02 12:12:00,65.5,54.4,29.62,NNW,333,3.9,5.4,67,-99.99,,,-99.99,WSDL version 423,2013-07-02 16:12:00,
2013-07-02 12:17:00,65.6,54.1,29.62,NNW,343,4.6,8.5,65,-99.99,,,-99.99,WSDL version 423,2013-07-02 16:17:00,
2013-07-02 12:22:00,65.9,54.3,29.62,NNW,335,1.9,8.5,66,-99.99,,,-99.99,WSDL version 423,2013-07-02 16:22:00,
2013-07-02 12:27:00,66.2,54.4,29.59,North,360,3.3,7.2,65,-99.99,,,-99.99,WSDL version 423,2013-07-02 16:27:00,
2013-07-02 12:32:00,66.2,53.8,29.59,NNW,333,4.0,7.2,64,-99.99,,,-99.99,WSDL version 423,2013-07-02 16:32:00,
2013-07-02 12:37:00,66.3,53.9,29.59,NE,37,1.9,6.5,65,-99.99,,,-99.99,WSDL version 423,2013-07-02 16:37:00,
2013-07-02 12:42:00,66.4,53.8,29.62,NNW,343,3.6,4.9,63,-99.99,,,-99.99,WSDL version 423,2013-07-02 16:42:00,
2013-07-02 12:47:00,66.4,53.7,29.62,North,355,3.2,5.6,64,-99.99,,,-99.99,WSDL version 423,2013-07-02 16:47:00,
2013-07-02 12:52:00,66.4,53.6,29.62,North,357,5.3,8.5,64,-99.99,,,-99.99,WSDL version 423,2013-07-02 16:52:00,
2013-07-02 12:57:00,66.9,54.2,29.59,NNW,328,4.6,8.7,63,-99.99,,,-99.99,WSDL version 423,2013-07-02 16:57:00,
2013-07-02 13:02:00,67.3,54.1,29.59,North,11,3.2,8.7,62,-99.99,,,-99.99,WSDL version 423,2013-07-02 17:02:00,
2013-07-02 13:07:00,67.8,54.2,29.59,North,3,4.3,6.5,61,-99.99,,,-99.99,WSDL version 423,2013-07-02 17:07:00,
2013-07-02 13:12:00,68.0,53.7,29.59,North,354,3.4,7.6,61,-99.99,,,-99.99,WSDL version 423,2013-07-02 17:12:00,
2013-07-02 13:17:00,68.2,54.0,29.59,NNW,338,4.6,7.6,60,-99.99,,,-99.99,WSDL version 423,2013-07-02 17:17:00,
2013-07-02 13:22:00,68.2,53.7,29.59,North,10,3.7,8.5,60,-99.99,,,-99.99,WSDL version 423,2013-07-02 17:22:00,
2013-07-02 13:27:00,68.0,53.6,29.59,North,354,5.5,8.5,59,-99.99,,,-99.99,WSDL version 423,2013-07-02 17:27:00,
2013-07-02 13:32:00,67.9,53.7,29.59,North,357,3.8,8.5,60,-99.99,,,-99.99,WSDL version 423,2013-07-02 17:32:00,
2013-07-02 13:37:00,68.1,53.8,29.59,NNW,328,4.4,8.5,61,-99.99,,,-99.99,WSDL version 423,2013-07-02 17:37:00,
2013-07-02 13:42:00,68.0,53.7,29.59,NNW,348,3.6,7.2,60,-99.99,,,-99.99,WSDL version 423,2013-07-02 17:42:00,
2013-07-02 13:47:00,67.7,53.5,29.59,NNW,340,4.6,7.4,60,-99.99,,,-99.99,WSDL version 423,2013-07-02 17:47:00,
2013-07-02 13:52:00,67.6,53.4,29.59,North,354,5.1,7.8,61,-99.99,,,-99.99,WSDL version 423,2013-07-02 17:52:00,
2013-07-02 13:57:00,67.7,53.8,29.62,North,352,5.1,8.7,61,-99.99,,,-99.99,WSDL version 423,2013-07-02 17:57:00,
2013-07-02 14:02:00,68.3,54.6,29.62,North,357,3.9,8.7,62,-99.99,,,-99.99,WSDL version 423,2013-07-02 18:02:00,
2013-07-02 14:07:00,68.9,54.6,29.62,NNE,25,4.3,8.7,60,-99.99,,,-99.99,WSDL version 423,2013-07-02 18:07:00,
2013-07-02 14:12:00,69.1,54.1,29.59,North,354,6.3,8.7,58,-99.99,,,-99.99,WSDL version 423,2013-07-02 18:12:00,
2013-07-02 14:17:00,68.8,53.5,29.59,NNW,338,5.3,8.7,58,-99.99,,,-99.99,WSDL version 423,2013-07-02 18:17:00,
2013-07-02 14:22:00,68.8,54.1,29.59,NNW,344,5.0,8.1,59,-99.99,,,-99.99,WSDL version 423,2013-07-02 18:22:00,
2013-07-02 14:27:00,69.0,53.9,29.59,NNW,338,3.7,6.7,59,-99.99,,,-99.99,WSDL version 423,2013-07-02 18:27:00,
2013-07-02 14:32:00,69.6,54.6,29.59,North,352,6.7,9.8,58,-99.99,,,-99.99,WSDL version 423,2013-07-02 18:32:00,
2013-07-02 14:37:00,70.1,54.4,29.59,North,352,4.8,9.8,57,-99.99,,,-99.99,WSDL version 423,2013-07-02 18:37:00,
2013-07-02 14:42:00,70.2,53.9,29.59,NNW,343,5.2,8.5,57,-99.99,,,-99.99,WSDL version 423,2013-07-02 18:42:00,
2013-07-02 14:47:00,70.0,54.0,29.59,NNW,344,3.6,10.3,58,-99.99,,,-99.99,WSDL version 423,2013-07-02 18:47:00,
2013-07-02 14:52:00,70.1,53.8,29.59,NNE,13,4.2,10.3,56,-99.99,,,-99.99,WSDL version 423,2013-07-02 18:52:00,
2013-07-02 14:57:00,70.0,53.5,29.59,North,349,5.5,7.8,56,-99.99,,,-99.99,WSDL version 423,2013-07-02 18:57:00,
2013-07-02 15:02:00,69.8,53.5,29.59,NNW,345,4.3,8.1,57,-99.99,,,-99.99,WSDL version 423,2013-07-02 19:02:00,
2013-07-02 15:07:00,70.0,54.2,29.59,North,360,4.1,8.1,57,-99.99,,,-99.99,WSDL version 423,2013-07-02 19:07:00,
2013-07-02 15:12:00,70.3,54.2,29.59,NW,321,3.4,7.4,57,-99.99,,,-99.99,WSDL version 423,2013-07-02 19:12:00,
2013-07-02 15:17:00,70.5,54.3,29.59,North,354,4.6,7.8,55,-99.99,,,-99.99,WSDL version 423,2013-07-02 19:17:00,
2013-07-02 15:22:00,70.6,54.2,29.59,NNW,346,5.6,8.5,56,-99.99,,,-99.99,WSDL version 423,2013-07-02 19:22:00,
2013-07-02 15:27:00,70.3,54.3,29.59,North,357,3.1,8.5,57,-99.99,,,-99.99,WSDL version 423,2013-07-02 19:27:00,
2013-07-02 15:32:00,69.8,54.0,29.59,NNW,338,4.0,7.8,58,-99.99,,,-99.99,WSDL version 423,2013-07-02 19:32:00,
2013-07-02 15:37:00,69.8,54.4,29.59,NNE,13,4.0,7.8,58,-99.99,,,-99.99,WSDL version 423,2013-07-02 19:37:00,
2013-07-02 15:42:00,69.8,54.6,29.59,NNW,346,4.2,8.5,59,-99.99,,,-99.99,WSDL version 423,2013-07-02 19:42:00,
2013-07-02 15:47:00,69.6,54.3,29.59,NW,323,3.4,8.5,59,-99.99,,,-99.99,WSDL version 423,2013-07-02 19:47:00,
2013-07-02 15:52:00,69.8,54.9,29.59,North,349,3.1,8.5,59,-99.99,,,-99.99,WSDL version 423,2013-07-02 19:52:00,
2013-07-02 15:57:00,69.6,55.0,29.59,NNW,343,2.7,6.0,60,-99.99,,,-99.99,WSDL version 423,2013-07-02 19:57:00,
2013-07-02 16:02:00,69.7,55.1,29.59,North,5,3.5,5.8,59,-99.99,,,-99.99,WSDL version 423,2013-07-02 20:02:00,
2013-07-02 16:07:00,70.0,55.6,29.59,NW,323,3.4,5.8,60,-99.99,,,-99.99,WSDL version 423,2013-07-02 20:07:00,
2013-07-02 16:12:00,69.8,54.6,29.59,North,355,3.0,8.1,60,-99.99,,,-99.99,WSDL version 423,2013-07-02 20:12:00,
2013-07-02 16:17:00,69.2,54.4,29.59,NNW,340,6.1,8.7,60,-99.99,,,-99.99,WSDL version 423,2013-07-02 20:17:00,
2013-07-02 16:22:00,68.9,54.9,29.59,NNW,347,4.1,8.7,62,-99.99,,,-99.99,WSDL version 423,2013-07-02 20:22:00,
2013-07-02 16:27:00,68.9,55.2,29.59,North,360,4.9,8.1,61,-99.99,,,-99.99,WSDL version 423,2013-07-02 20:27:00,
2013-07-02 16:32:00,68.5,55.2,29.59,North,8,3.6,9.8,64,-99.99,,,-99.99,WSDL version 423,2013-07-02 20:32:00,
2013-07-02 16:37:00,68.4,55.6,29.59,NNW,343,5.1,9.8,64,-99.99,,,-99.99,WSDL version 423,2013-07-02 20:37:00,
2013-07-02 16:42:00,68.4,55.7,29.59,North,360,5.4,7.6,64,-99.99,,,-99.99,WSDL version 423,2013-07-02 20:42:00,
2013-07-02 16:47:00,68.5,56.0,29.59,NNW,328,3.4,7.6,64,-99.99,,,-99.99,WSDL version 423,2013-07-02 20:47:00,
2013-07-02 16:52:00,68.4,56.2,29.59,North,355,3.9,7.6,65,-99.99,,,-99.99,WSDL version 423,2013-07-02 20:52:00,
2013-07-02 16:57:00,68.7,56.6,29.59,North,357,2.6,7.6,66,-99.99,,,-99.99,WSDL version 423,2013-07-02 20:57:00,
2013-07-02 17:02:00,68.6,56.2,29.59,NNE,15,5.9,8.1,64,-99.99,,,-99.99,WSDL version 423,2013-07-02 21:02:00,
2013-07-02 17:07:00,68.3,56.1,29.59,NNW,343,3.0,8.1,65,-99.99,,,-99.99,WSDL version 423,2013-07-02 21:07:00,
2013-07-02 17:12:00,68.4,56.2,29.56,NNW,348,3.4,6.0,65,-99.99,,,-99.99,WSDL version 423,2013-07-02 21:12:00,
2013-07-02 17:17:00,68.5,56.3,29.56,NNW,331,3.3,5.8,65,-99.99,,,-99.99,WSDL version 423,2013-07-02 21:17:00,
2013-07-02 17:22:00,68.6,56.4,29.56,NNE,13,3.6,4.9,65,-99.99,,,-99.99,WSDL version 423,2013-07-02 21:22:00,
2013-07-02 17:27:00,68.8,56.7,29.56,North,8,3.9,6.3,65,-99.99,,,-99.99,WSDL version 423,2013-07-02 21:27:00,
2013-07-02 17:32:00,68.8,56.4,29.56,NNW,334,4.7,7.6,64,-99.99,,,-99.99,WSDL version 423,2013-07-02 21:32:00,
2013-07-02 17:37:00,68.6,56.3,29.56,NNW,335,4.5,10.3,65,-99.99,,,-99.99,WSDL version 423,2013-07-02 21:37:00,
2013-07-02 17:42:00,68.6,56.0,29.59,NNW,340,3.5,10.3,64,-99.99,,,-99.99,WSDL version 423,2013-07-02 21:42:00,
2013-07-02 17:47:00,68.6,56.1,29.59,NNW,340,3.7,6.7,64,-99.99,,,-99.99,WSDL version 423,2013-07-02 21:47:00,
2013-07-02 17:52:00,68.5,56.1,29.59,NNW,335,3.1,6.3,65,-99.99,,,-99.99,WSDL version 423,2013-07-02 21:52:00,
2013-07-02 17:57:00,68.5,56.5,29.59,NNW,343,2.5,6.3,66,-99.99,,,-99.99,WSDL version 423,2013-07-02 21:57:00,
2013-07-02 18:02:00,68.6,56.4,29.59,NNW,348,3.1,4.9,65,-99.99,,,-99.99,WSDL version 423,2013-07-02 22:02:00,
2013-07-02 18:07:00,68.4,56.2,29.59,NW,326,2.8,4.9,66,-99.99,,,-99.99,WSDL version 423,2013-07-02 22:07:00,
2013-07-02 18:12:00,68.3,56.2,29.56,North,349,3.4,5.8,65,-99.99,,,-99.99,WSDL version 423,2013-07-02 22:12:00,
2013-07-02 18:17:00,67.9,56.0,29.56,NNW,347,3.9,5.8,66,-99.99,,,-99.99,WSDL version 423,2013-07-02 22:17:00,
2013-07-02 18:22:00,67.7,56.1,29.56,NNW,340,3.3,6.3,67,-99.99,,,-99.99,WSDL version 423,2013-07-02 22:22:00,
2013-07-02 18:27:00,67.6,56.4,29.56,NW,318,3.5,6.3,67,-99.99,,,-99.99,WSDL version 423,2013-07-02 22:27:00,
2013-07-02 18:32:00,67.7,56.4,29.56,NNW,335,3.8,6.3,68,-99.99,,,-99.99,WSDL version 423,2013-07-02 22:32:00,
2013-07-02 18:37:00,67.6,56.5,29.56,North,358,4.0,6.0,68,-99.99,,,-99.99,WSDL version 423,2013-07-02 22:37:00,
2013-07-02 18:42:00,67.5,56.5,29.59,NNW,343,3.6,6.3,68,-99.99,,,-99.99,WSDL version 423,2013-07-02 22:42:00,
2013-07-02 18:47:00,67.3,56.4,29.59,NW,326,3.3,6.3,68,-99.99,,,-99.99,WSDL version 423,2013-07-02 22:47:00,
2013-07-02 18:52:00,67.3,56.4,29.59,NNW,329,2.8,5.8,68,-99.99,,,-99.99,WSDL version 423,2013-07-02 22:52:00,
2013-07-02 18:57:00,67.2,56.3,29.56,NNW,338,2.8,4.9,68,-99.99,,,-99.99,WSDL version 423,2013-07-02 22:57:00,
2013-07-02 19:02:00,67.0,56.1,29.56,NNW,340,3.8,6.3,68,-99.99,,,-99.99,WSDL version 423,2013-07-02 23:02:00,
2013-07-02 19:07:00,66.8,55.9,29.56,North,352,2.9,6.3,68,-99.99,,,-99.99,WSDL version 423,2013-07-02 23:07:00,
2013-07-02 19:12:00,66.7,56.1,29.59,NNW,345,3.1,6.3,69,-99.99,,,-99.99,WSDL version 423,2013-07-02 23:12:00,
2013-07-02 19:17:00,66.7,56.3,29.59,North,349,1.4,4.3,69,-99.99,,,-99.99,WSDL version 423,2013-07-02 23:17:00,
2013-07-02 19:22:00,66.7,56.3,29.59,North,352,3.2,4.7,69,-99.99,,,-99.99,WSDL version 423,2013-07-02 23:22:00,
2013-07-02 19:27:00,66.5,56.1,29.56,NNW,346,2.4,4.9,70,-99.99,,,-99.99,WSDL version 423,2013-07-02 23:27:00,
2013-07-02 19:32:00,66.3,56.2,29.56,North,355,2.7,5.4,70,-99.99,,,-99.99,WSDL version 423,2013-07-02 23:32:00,
2013-07-02 19:37:00,66.1,56.2,29.56,North,352,3.0,5.8,71,-99.99,,,-99.99,WSDL version 423,2013-07-02 23:37:00,
2013-07-02 19:42:00,65.9,56.6,29.59,North,5,2.2,5.8,72,-99.99,,,-99.99,WSDL version 423,2013-07-02 23:42:00,
2013-07-02 19:47:00,65.7,56.5,29.59,NNW,340,1.5,4.9,72,-99.99,,,-99.99,WSDL version 423,2013-07-02 23:47:00,
2013-07-02 19:52:00,65.7,56.7,29.59,NNW,335,1.7,2.9,73,-99.99,,,-99.99,WSDL version 423,2013-07-02 23:52:00,
2013-07-02 19:57:00,65.7,57.0,29.56,NNW,348,2.4,3.6,74,-99.99,,,-99.99,WSDL version 423,2013-07-02 23:57:00,
2013-07-02 20:02:00,65.7,57.2,29.56,NE,34,1.2,3.6,74,-99.99,,,-99.99,WSDL version 423,2013-07-03 00:02:00,
2013-07-02 20:07:00,65.7,57.1,29.56,North,352,1.1,2.5,74,-99.99,,,-99.99,WSDL version 423,2013-07-03 00:07:00,
2013-07-02 20:12:00,65.7,57.2,29.59,NNW,343,0.6,2.9,74,-99.99,,,-99.99,WSDL version 423,2013-07-03 00:12:00,
2013-07-02 20:17:00,65.6,57.1,29.59,NNW,345,2.2,2.9,74,-99.99,,,-99.99,WSDL version 423,2013-07-03 00:17:00,
2013-07-02 20:22:00,65.5,57.0,29.59,North,8,0.0,2.9,74,-99.99,,,-99.99,WSDL version 423,2013-07-03 00:22:00,
2013-07-02 20:27:00,65.5,57.0,29.59,NNW,338,1.2,2.9,75,-99.99,,,-99.99,WSDL version 423,2013-07-03 00:27:00,
2013-07-02 20:32:00,65.3,57.2,29.59,NNW,345,1.2,3.1,75,-99.99,,,-99.99,WSDL version 423,2013-07-03 00:32:00,
2013-07-02 20:37:00,65.3,57.2,29.59,North,354,0.0,3.1,75,-99.99,,,-99.99,WSDL version 423,2013-07-03 00:37:00,
2013-07-02 20:42:00,65.2,57.6,29.59,NNW,348,1.7,3.1,77,-99.99,,,-99.99,WSDL version 423,2013-07-03 00:42:00,
2013-07-02 20:47:00,65.1,57.7,29.59,North,360,1.5,3.1,77,-99.99,,,-99.99,WSDL version 423,2013-07-03 00:47:00,
2013-07-02 20:52:00,65.0,57.6,29.59,North,5,2.4,3.6,77,-99.99,,,-99.99,WSDL version 423,2013-07-03 00:52:00,
2013-07-02 20:57:00,64.8,57.6,29.59,NNW,343,2.0,3.6,78,-99.99,,,-99.99,WSDL version 423,2013-07-03 00:57:00,
2013-07-02 21:02:00,64.8,57.7,29.59,NNW,338,1.7,3.1,78,-99.99,,,-99.99,WSDL version 423,2013-07-03 01:02:00,
2013-07-02 21:07:00,64.8,57.7,29.59,North,357,1.6,2.9,78,-99.99,,,-99.99,WSDL version 423,2013-07-03 01:07:00,
2013-07-02 21:12:00,64.7,57.8,29.56,North,350,1.7,2.7,79,-99.99,,,-99.99,WSDL version 423,2013-07-03 01:12:00,
2013-07-02 21:17:00,64.6,57.9,29.56,North,360,2.1,3.8,79,-99.99,,,-99.99,WSDL version 423,2013-07-03 01:17:00,
2013-07-02 21:22:00,64.4,57.8,29.56,North,357,2.3,3.8,79,-99.99,,,-99.99,WSDL version 423,2013-07-03 01:22:00,
2013-07-02 21:27:00,64.4,57.9,29.59,North,352,2.6,3.8,80,-99.99,,,-99.99,WSDL version 423,2013-07-03 01:27:00,
2013-07-02 21:32:00,64.3,57.9,29.59,North,8,2.2,3.8,80,-99.99,,,-99.99,WSDL version 423,2013-07-03 01:32:00,
2013-07-02 21:37:00,64.2,57.9,29.59,North,6,1.1,3.6,80,-99.99,,,-99.99,WSDL version 423,2013-07-03 01:37:00,
2013-07-02 21:42:00,64.2,57.9,29.59,North,353,1.9,4.0,80,-99.99,,,-99.99,WSDL version 423,2013-07-03 01:42:00,
2013-07-02 21:47:00,64.2,57.9,29.59,North,352,1.5,4.0,80,-99.99,,,-99.99,WSDL version 423,2013-07-03 01:47:00,
2013-07-02 21:52:00,64.1,57.8,29.59,North,360,0.8,3.4,80,-99.99,,,-99.99,WSDL version 423,2013-07-03 01:52:00,
2013-07-02 21:57:00,64.0,57.8,29.59,North,11,1.8,3.6,80,-99.99,,,-99.99,WSDL version 423,2013-07-03 01:57:00,
2013-07-02 22:02:00,63.9,57.6,29.59,North,358,1.5,3.6,80,-99.99,,,-99.99,WSDL version 423,2013-07-03 02:02:00,
2013-07-02 22:07:00,63.9,57.6,29.59,NNE,23,0.0,2.9,80,-99.99,,,-99.99,WSDL version 423,2013-07-03 02:07:00,
2013-07-02 22:12:00,63.9,57.6,29.56,ENE,70,0.0,1.6,80,-99.99,,,-99.99,WSDL version 423,2013-07-03 02:12:00,
2013-07-02 22:17:00,63.9,57.6,29.56,North,3,1.2,2.7,80,-99.99,,,-99.99,WSDL version 423,2013-07-03 02:17:00,
2013-07-02 22:24:00,63.9,57.5,29.59,North,357,0.4,2.7,80,-99.99,,,-99.99,WSDL version 423,2013-07-03 02:24:00,
2013-07-02 22:29:00,63.8,57.6,29.59,NNW,330,1.7,3.4,80,-99.99,,,-99.99,WSDL version 423,2013-07-03 02:29:00,
2013-07-02 22:34:00,63.7,57.6,29.59,North,360,1.6,3.4,81,-99.99,,,-99.99,WSDL version 423,2013-07-03 02:34:00,
2013-07-02 22:39:00,63.7,57.8,29.56,North,354,0.7,2.5,81,-99.99,,,-99.99,WSDL version 423,2013-07-03 02:39:00,
2013-07-02 22:44:00,63.7,57.8,29.56,NNE,23,0.4,2.2,81,-99.99,,,-99.99,WSDL version 423,2013-07-03 02:44:00,
2013-07-02 22:49:00,63.7,57.7,29.56,NNW,338,0.0,2.2,80,-99.99,,,-99.99,WSDL version 423,2013-07-03 02:49:00,
2013-07-02 22:56:00,63.7,57.8,29.56,NNW,338,0.0,0.9,81,-99.99,,,-99.99,WSDL version 423,2013-07-03 02:56:00,
2013-07-02 23:01:00,63.7,57.8,29.56,North,360,1.3,2.0,81,-99.99,,,-99.99,WSDL version 423,2013-07-03 03:01:00,
2013-07-02 23:06:00,63.7,57.8,29.56,North,3,0.0,2.0,81,-99.99,,,-99.99,WSDL version 423,2013-07-03 03:06:00,
2013-07-02 23:11:00,63.7,57.8,29.59,North,5,0.0,1.6,81,-99.99,,,-99.99,WSDL version 423,2013-07-03 03:11:00,
2013-07-02 23:16:00,63.6,57.7,29.59,North,360,2.1,2.7,82,-99.99,,,-99.99,WSDL version 423,2013-07-03 03:16:00,
2013-07-02 23:26:00,63.4,57.9,29.56,North,352,0.6,2.7,82,-99.99,,,-99.99,WSDL version 423,2013-07-03 03:26:00,
2013-07-02 23:31:00,63.3,57.8,29.56,North,8,1.7,3.1,82,-99.99,,,-99.99,WSDL version 423,2013-07-03 03:31:00,
2013-07-02 23:36:00,63.3,57.8,29.56,NNW,340,0.5,3.1,82,-99.99,,,-99.99,WSDL version 423,2013-07-03 03:36:00,
2013-07-02 23:41:00,63.1,57.6,29.56,NNW,343,0.0,2.0,82,-99.99,,,-99.99,WSDL version 423,2013-07-03 03:41:00,
2013-07-02 23:46:00,63.1,57.6,29.56,North,360,0.0,1.6,82,-99.99,,,-99.99,WSDL version 423,2013-07-03 03:46:00,
2013-07-02 23:53:00,63.1,57.6,29.56,North,360,0.0,0.0,82,-99.99,,,-99.99,WSDL version 423,2013-07-03 03:53:00,
2013-07-02 23:58:00,63.1,57.7,29.56,North,360,0.0,0.0,83,-99.99,,,-99.99,WSDL version 423,2013-07-03 03:58:00,